DELTA 1 DEB, 10178

Orbit data source: Space-Track

DELTA 1 DEB, 10178 is space debris in LEO originally from a launch on Thu, 14 Jul 1977 UTC launched from the Air Force Eastern Test Range (AFETR). Debris objects in space refer to the collection of defunct objects orbiting the Earth. Examples of debris include non-operational satellites, rocket bodies, and fragments generated from explosions, collisions, or faulty payload assembly.

Loading next visibility...
Identifier
10178, 1977-065G
Orbit
LEO
Country
Flag of USUS
Related business
Manufacturer
Unknown
Mission
Spacecraft
Bus & Motor
Unknown
Mass
Unknown
Launch date (UTC)
1977-07-14 (49 years ago)
Launch vehicle
Unknown
Launch site
Air Force Eastern Test Range (AFETR)
Object type
Payload
Rocket body
Debris
Shape & HBR
Unknown shape, 1.1 m
Radar Cross Section
Small (<0.1 m²)

Expand to show TLE details & history
Last TLE update: 8 hours ago

TLE from 8 hours ago
0 DELTA 1 DEB
1 10178U 77065G   26133.01019713  .00002531  00000-0  78209-2 0  9998
2 10178  28.7101  28.2191 0901816 104.4508  10.6715 12.09405678  5993
Epoch: 2026-05-13T00:14Z
TLE epoch observation values (Epoch: 2026-05-13T00:14:41.032Z)
Latitude
25.38915°
Longitude
-85.75927°
Altitude
929.948 km
Speed
7.71 km/s
True Right ascension
09h 54m 45s
True Declination
25° 15' 34"
Sunlit
Object was in daylight at epoch
Visualization orbit readout
Latitude
Unknown
Longitude
Unknown
Altitude
Unknown
Speed
Unknown
Apparent Right ascension
Unknown
Apparent Declination
Unknown
Sunlit
N/A
Visualization observer readout
Local Sidereal Time
16:14:59
Azimuth
Unknown
Elevation
Unknown
Doppler factor
Unknown
Orbital elements
Apogee altitude
2,365.993 km
Perigee altitude
919.336 km
Semi-major axis
8,020.801 km
Eccentricity
0.09018
Inclination
28.7101°
RAAN
28.2191°
Arg. of periapsis
104.4508°
True anomaly
12.82165°
Mean anomaly
10.6715°
Eccentric anomaly
11.72118°
Mean motion
3.02146 °/min
Orbital period
119.15 mins
BSTAR
0.0078209
Loading maneuver chart data...
Computing Atmospheric mass density...

Documentation

Showing up to 5 results
|